This is the latest recevied weather packets stored in our database for station/object OE3PDB-3. If no packets are shown the sender has not sent any weather packets the latest 10 day(s).
| Time | Temp. | Humidity | Pressure | Rain* | Wind** | Luminosity | Snow |
|---|---|---|---|---|---|---|---|
| 1777873846 | 13.89° C | 62% | 1014.4 hPa | 0 mm | - | - | - |
| 1777873246 | 13.33° C | 62% | 1014.4 hPa | 0 mm | - | - | - |
| 1777872646 | 12.78° C | 62% | 1014.4 hPa | 0 mm | - | - | - |
| 1777872046 | 12.78° C | 62% | 1014.1 hPa | 0 mm | - | - | - |
| 1777871446 | 12.78° C | 63% | 1013.9 hPa | 0 mm | - | - | - |
| 1777870847 | 12.22° C | 65% | 1013.8 hPa | 0 mm | - | - | - |
| 1777870247 | 12.22° C | 64% | 1013.6 hPa | 0 mm | - | - | - |
| 1777869647 | 11.67° C | 65% | 1013.7 hPa | 0 mm | - | - | - |
| 1777869047 | 11.67° C | 65% | 1013.6 hPa | 0 mm | - | - | - |
| 1777868447 | 11.67° C | 65% | 1013.4 hPa | 0 mm | - | - | - |
| 1777867847 | 11.67° C | 65% | 1013.2 hPa | 0 mm | - | - | - |
| 1777867247 | 11.67° C | 65% | 1013.4 hPa | 0 mm | - | - | - |
| 1777866647 | 11.67° C | 64% | 1013.3 hPa | 0 mm | - | - | - |
| 1777866047 | 11.67° C | 64% | 1013.4 hPa | 0 mm | - | - | - |
| 1777865447 | 11.67° C | 62% | 1013.3 hPa | 0 mm | - | - | - |
| 1777864847 | 12.22° C | 62% | 1013.3 hPa | 0 mm | - | - | - |
| 1777864247 | 12.22° C | 61% | 1013.3 hPa | 0 mm | - | - | - |
| 1777863647 | 12.22° C | 60% | 1013.4 hPa | 0 mm | - | - | - |
| 1777863047 | 12.22° C | 60% | 1013.3 hPa | 0 mm | - | - | - |
| 1777862447 | 12.78° C | 59% | 1013.2 hPa | 0 mm | - | - | - |
| 1777861847 | 12.78° C | 59% | 1013.2 hPa | 0 mm | - | - | - |
| 1777861247 | 12.78° C | 58% | 1013.3 hPa | 0 mm | - | - | - |
| 1777860647 | 12.78° C | 57% | 1013.2 hPa | 0 mm | - | - | - |
| 1777860047 | 13.33° C | 56% | 1013.2 hPa | 0 mm | - | - | - |
| 1777859447 | 13.89° C | 55% | 1013.1 hPa | 0 mm | - | - | - |
* Rain latest hour (hover to see other rain measurements)
** Current wind speed in m/s (hover to see current wind gust speed)